Location: Wien
(48.2082°N, 16.3738°E)
Time: 19:54:34
(UTC+02:00)

MOZHAYETS 4 - Pass Details

Date: 25 March 2019
Orbit: 663 x 680 km, 98.0° (Epoch: 25 April)

Event Time Altitude Azimuth Distance (km) Brightness Sun altitude
Exits shadow 01:53:38 18° 349° (N) 1,664 10.1 -34.5°
Drops below altitude 10° 01:54:45 10° 348° (NNW) 2,114 10.7 -34.3°
Sets 01:57:00 0° 348° (NNW) 3,035 11.6 -34.1°
